Index of /20260501/WXO-DD/model_rdps/10km/12/025
Name Last modified Size Description
Parent Directory -
20260501T12Z_MSC_RDPS_AbsoluteVorticity_IsbL-0250_RLatLon0.09_PT025H.grib2 2026-05-01 15:06 600K
20260501T12Z_MSC_RDPS_AbsoluteVorticity_IsbL-0500_RLatLon0.09_PT025H.grib2 2026-05-01 15:06 567K
20260501T12Z_MSC_RDPS_AbsoluteVorticity_IsbL-0700_RLatLon0.09_PT025H.grib2 2026-05-01 15:06 614K
20260501T12Z_MSC_RDPS_AbsoluteVorticity_IsbL-0850_RLatLon0.09_PT025H.grib2 2026-05-01 15:06 783K
20260501T12Z_MSC_RDPS_AirTemp_AGL-120m_RLatLon0.09_PT025H.grib2 2026-05-01 15:06 382K
20260501T12Z_MSC_RDPS_AirTemp_AGL-2m_RLatLon0.09_PT025H.grib2 2026-05-01 15:06 627K
20260501T12Z_MSC_RDPS_AirTemp_AGL-40m_RLatLon0.09_PT025H.grib2 2026-05-01 15:06 398K
20260501T12Z_MSC_RDPS_AirTemp_AGL-80m_RLatLon0.09_PT025H.grib2 2026-05-01 15:06 390K
20260501T12Z_MSC_RDPS_AirTemp_IsbL-0001_RLatLon0.09_PT025H.grib2 2026-05-01 15:06 309K
20260501T12Z_MSC_RDPS_AirTemp_IsbL-0005_RLatLon0.09_PT025H.grib2 2026-05-01 15:06 285K
20260501T12Z_MSC_RDPS_AirTemp_IsbL-0010_RLatLon0.09_PT025H.grib2 2026-05-01 15:06 387K
20260501T12Z_MSC_RDPS_AirTemp_IsbL-0020_RLatLon0.09_PT025H.grib2 2026-05-01 15:06 310K
20260501T12Z_MSC_RDPS_AirTemp_IsbL-0030_RLatLon0.09_PT025H.grib2 2026-05-01 15:06 332K
20260501T12Z_MSC_RDPS_AirTemp_IsbL-0050_RLatLon0.09_PT025H.grib2 2026-05-01 15:06 311K
20260501T12Z_MSC_RDPS_AirTemp_IsbL-0100_RLatLon0.09_PT025H.grib2 2026-05-01 15:06 420K
20260501T12Z_MSC_RDPS_AirTemp_IsbL-0150_RLatLon0.09_PT025H.grib2 2026-05-01 15:06 414K
20260501T12Z_MSC_RDPS_AirTemp_IsbL-0175_RLatLon0.09_PT025H.grib2 2026-05-01 15:06 408K
20260501T12Z_MSC_RDPS_AirTemp_IsbL-0200_RLatLon0.09_PT025H.grib2 2026-05-01 15:06 409K
20260501T12Z_MSC_RDPS_AirTemp_IsbL-0225_RLatLon0.09_PT025H.grib2 2026-05-01 15:06 407K
20260501T12Z_MSC_RDPS_AirTemp_IsbL-0250_RLatLon0.09_PT025H.grib2 2026-05-01 15:06 414K
20260501T12Z_MSC_RDPS_AirTemp_IsbL-0275_RLatLon0.09_PT025H.grib2 2026-05-01 15:06 397K
20260501T12Z_MSC_RDPS_AirTemp_IsbL-0300_RLatLon0.09_PT025H.grib2 2026-05-01 15:06 403K
20260501T12Z_MSC_RDPS_AirTemp_IsbL-0350_RLatLon0.09_PT025H.grib2 2026-05-01 15:06 421K
20260501T12Z_MSC_RDPS_AirTemp_IsbL-0400_RLatLon0.09_PT025H.grib2 2026-05-01 15:06 424K
20260501T12Z_MSC_RDPS_AirTemp_IsbL-0450_RLatLon0.09_PT025H.grib2 2026-05-01 15:06 396K
20260501T12Z_MSC_RDPS_AirTemp_IsbL-0500_RLatLon0.09_PT025H.grib2 2026-05-01 15:06 406K
20260501T12Z_MSC_RDPS_AirTemp_IsbL-0550_RLatLon0.09_PT025H.grib2 2026-05-01 15:06 423K
20260501T12Z_MSC_RDPS_AirTemp_IsbL-0600_RLatLon0.09_PT025H.grib2 2026-05-01 15:06 442K
20260501T12Z_MSC_RDPS_AirTemp_IsbL-0650_RLatLon0.09_PT025H.grib2 2026-05-01 15:06 456K
20260501T12Z_MSC_RDPS_AirTemp_IsbL-0700_RLatLon0.09_PT025H.grib2 2026-05-01 15:06 480K
20260501T12Z_MSC_RDPS_AirTemp_IsbL-0750_RLatLon0.09_PT025H.grib2 2026-05-01 15:06 518K
20260501T12Z_MSC_RDPS_AirTemp_IsbL-0800_RLatLon0.09_PT025H.grib2 2026-05-01 15:06 572K
20260501T12Z_MSC_RDPS_AirTemp_IsbL-0850_RLatLon0.09_PT025H.grib2 2026-05-01 15:06 629K
20260501T12Z_MSC_RDPS_AirTemp_IsbL-0875_RLatLon0.09_PT025H.grib2 2026-05-01 15:06 650K
20260501T12Z_MSC_RDPS_AirTemp_IsbL-0900_RLatLon0.09_PT025H.grib2 2026-05-01 15:06 662K
20260501T12Z_MSC_RDPS_AirTemp_IsbL-0925_RLatLon0.09_PT025H.grib2 2026-05-01 15:06 658K
20260501T12Z_MSC_RDPS_AirTemp_IsbL-0950_RLatLon0.09_PT025H.grib2 2026-05-01 15:06 528K
20260501T12Z_MSC_RDPS_AirTemp_IsbL-0970_RLatLon0.09_PT025H.grib2 2026-05-01 15:06 524K
20260501T12Z_MSC_RDPS_AirTemp_IsbL-0985_RLatLon0.09_PT025H.grib2 2026-05-01 15:06 513K
20260501T12Z_MSC_RDPS_AirTemp_IsbL-1000_RLatLon0.09_PT025H.grib2 2026-05-01 15:06 498K
20260501T12Z_MSC_RDPS_AirTemp_IsbL-1015_RLatLon0.09_PT025H.grib2 2026-05-01 15:06 495K
20260501T12Z_MSC_RDPS_Albedo_Sfc_RLatLon0.09_PT025H.grib2 2026-05-01 15:06 154K
20260501T12Z_MSC_RDPS_CAPE_Sfc_RLatLon0.09_PT025H.grib2 2026-05-01 15:06 1.6M
20260501T12Z_MSC_RDPS_CIN_Sfc_RLatLon0.09_PT025H.grib2 2026-05-01 15:06 1.1M
20260501T12Z_MSC_RDPS_CloudWater_EAtm_RLatLon0.09_PT025H.grib2 2026-05-01 15:06 220K
20260501T12Z_MSC_RDPS_ConvectivePrecip-Accum_Sfc_RLatLon0.09_PT025H.grib2 2026-05-01 15:06 781K
20260501T12Z_MSC_RDPS_DewPointDepression_AGL-2m_RLatLon0.09_PT025H.grib2 2026-05-01 15:06 403K
20260501T12Z_MSC_RDPS_DewPointDepression_IsbL-0001_RLatLon0.09_PT025H.grib2 2026-05-01 15:06 193
20260501T12Z_MSC_RDPS_DewPointDepression_IsbL-0005_RLatLon0.09_PT025H.grib2 2026-05-01 15:06 193
20260501T12Z_MSC_RDPS_DewPointDepression_IsbL-0010_RLatLon0.09_PT025H.grib2 2026-05-01 15:06 193
20260501T12Z_MSC_RDPS_DewPointDepression_IsbL-0020_RLatLon0.09_PT025H.grib2 2026-05-01 15:06 193
20260501T12Z_MSC_RDPS_DewPointDepression_IsbL-0030_RLatLon0.09_PT025H.grib2 2026-05-01 15:06 193
20260501T12Z_MSC_RDPS_DewPointDepression_IsbL-0050_RLatLon0.09_PT025H.grib2 2026-05-01 15:06 80K
20260501T12Z_MSC_RDPS_DewPointDepression_IsbL-0100_RLatLon0.09_PT025H.grib2 2026-05-01 15:06 123K
20260501T12Z_MSC_RDPS_DewPointDepression_IsbL-0150_RLatLon0.09_PT025H.grib2 2026-05-01 15:06 148K
20260501T12Z_MSC_RDPS_DewPointDepression_IsbL-0175_RLatLon0.09_PT025H.grib2 2026-05-01 15:06 184K
20260501T12Z_MSC_RDPS_DewPointDepression_IsbL-0200_RLatLon0.09_PT025H.grib2 2026-05-01 15:06 215K
20260501T12Z_MSC_RDPS_DewPointDepression_IsbL-0225_RLatLon0.09_PT025H.grib2 2026-05-01 15:06 251K
20260501T12Z_MSC_RDPS_DewPointDepression_IsbL-0250_RLatLon0.09_PT025H.grib2 2026-05-01 15:06 292K
20260501T12Z_MSC_RDPS_DewPointDepression_IsbL-0275_RLatLon0.09_PT025H.grib2 2026-05-01 15:06 303K
20260501T12Z_MSC_RDPS_DewPointDepression_IsbL-0300_RLatLon0.09_PT025H.grib2 2026-05-01 15:06 320K
20260501T12Z_MSC_RDPS_DewPointDepression_IsbL-0350_RLatLon0.09_PT025H.grib2 2026-05-01 15:06 325K
20260501T12Z_MSC_RDPS_DewPointDepression_IsbL-0400_RLatLon0.09_PT025H.grib2 2026-05-01 15:06 336K
20260501T12Z_MSC_RDPS_DewPointDepression_IsbL-0450_RLatLon0.09_PT025H.grib2 2026-05-01 15:06 343K
20260501T12Z_MSC_RDPS_DewPointDepression_IsbL-0500_RLatLon0.09_PT025H.grib2 2026-05-01 15:06 351K
20260501T12Z_MSC_RDPS_DewPointDepression_IsbL-0550_RLatLon0.09_PT025H.grib2 2026-05-01 15:06 360K
20260501T12Z_MSC_RDPS_DewPointDepression_IsbL-0600_RLatLon0.09_PT025H.grib2 2026-05-01 15:06 372K
20260501T12Z_MSC_RDPS_DewPointDepression_IsbL-0650_RLatLon0.09_PT025H.grib2 2026-05-01 15:06 376K
20260501T12Z_MSC_RDPS_DewPointDepression_IsbL-0700_RLatLon0.09_PT025H.grib2 2026-05-01 15:06 385K
20260501T12Z_MSC_RDPS_DewPointDepression_IsbL-0750_RLatLon0.09_PT025H.grib2 2026-05-01 15:06 401K
20260501T12Z_MSC_RDPS_DewPointDepression_IsbL-0800_RLatLon0.09_PT025H.grib2 2026-05-01 15:06 438K
20260501T12Z_MSC_RDPS_DewPointDepression_IsbL-0850_RLatLon0.09_PT025H.grib2 2026-05-01 15:06 471K
20260501T12Z_MSC_RDPS_DewPointDepression_IsbL-0875_RLatLon0.09_PT025H.grib2 2026-05-01 15:06 470K
20260501T12Z_MSC_RDPS_DewPointDepression_IsbL-0900_RLatLon0.09_PT025H.grib2 2026-05-01 15:06 458K
20260501T12Z_MSC_RDPS_DewPointDepression_IsbL-0925_RLatLon0.09_PT025H.grib2 2026-05-01 15:06 445K
20260501T12Z_MSC_RDPS_DewPointDepression_IsbL-0950_RLatLon0.09_PT025H.grib2 2026-05-01 15:06 441K
20260501T12Z_MSC_RDPS_DewPointDepression_IsbL-0970_RLatLon0.09_PT025H.grib2 2026-05-01 15:06 436K
20260501T12Z_MSC_RDPS_DewPointDepression_IsbL-0985_RLatLon0.09_PT025H.grib2 2026-05-01 15:06 432K
20260501T12Z_MSC_RDPS_DewPointDepression_IsbL-1000_RLatLon0.09_PT025H.grib2 2026-05-01 15:06 428K
20260501T12Z_MSC_RDPS_DewPointDepression_IsbL-1015_RLatLon0.09_PT025H.grib2 2026-05-01 15:06 421K
20260501T12Z_MSC_RDPS_DewPoint_AGL-2m_RLatLon0.09_PT025H.grib2 2026-05-01 15:06 396K
20260501T12Z_MSC_RDPS_DownwardLongwaveRadiationFlux-Accum_Sfc_RLatLon0.09_PT025H.grib2 2026-05-01 15:06 442K
20260501T12Z_MSC_RDPS_DownwardShortwaveRadiationFlux-Accum_NTAtm_RLatLon0.09_PT025H.grib2 2026-05-01 15:06 127K
20260501T12Z_MSC_RDPS_DownwardShortwaveRadiationFlux-Accum_Sfc_RLatLon0.09_PT025H.grib2 2026-05-01 15:06 633K
20260501T12Z_MSC_RDPS_FreezingRain-Accum1h_Sfc_RLatLon0.09_PT025H.grib2 2026-05-01 15:06 45K
20260501T12Z_MSC_RDPS_FreezingRain-Accum_Sfc_RLatLon0.09_PT025H.grib2 2026-05-01 15:06 122K
20260501T12Z_MSC_RDPS_GeopotentialHeight_IsbL-0001_RLatLon0.09_PT025H.grib2 2026-05-01 15:06 344K
20260501T12Z_MSC_RDPS_GeopotentialHeight_IsbL-0005_RLatLon0.09_PT025H.grib2 2026-05-01 15:06 303K
20260501T12Z_MSC_RDPS_GeopotentialHeight_IsbL-0010_RLatLon0.09_PT025H.grib2 2026-05-01 15:06 305K
20260501T12Z_MSC_RDPS_GeopotentialHeight_IsbL-0020_RLatLon0.09_PT025H.grib2 2026-05-01 15:06 304K
20260501T12Z_MSC_RDPS_GeopotentialHeight_IsbL-0030_RLatLon0.09_PT025H.grib2 2026-05-01 15:06 306K
20260501T12Z_MSC_RDPS_GeopotentialHeight_IsbL-0050_RLatLon0.09_PT025H.grib2 2026-05-01 15:06 308K
20260501T12Z_MSC_RDPS_GeopotentialHeight_IsbL-0100_RLatLon0.09_PT025H.grib2 2026-05-01 15:06 285K
20260501T12Z_MSC_RDPS_GeopotentialHeight_IsbL-0150_RLatLon0.09_PT025H.grib2 2026-05-01 15:06 228K
20260501T12Z_MSC_RDPS_GeopotentialHeight_IsbL-0175_RLatLon0.09_PT025H.grib2 2026-05-01 15:06 231K
20260501T12Z_MSC_RDPS_GeopotentialHeight_IsbL-0200_RLatLon0.09_PT025H.grib2 2026-05-01 15:06 264K
20260501T12Z_MSC_RDPS_GeopotentialHeight_IsbL-0225_RLatLon0.09_PT025H.grib2 2026-05-01 15:06 265K
20260501T12Z_MSC_RDPS_GeopotentialHeight_IsbL-0250_RLatLon0.09_PT025H.grib2 2026-05-01 15:06 266K
20260501T12Z_MSC_RDPS_GeopotentialHeight_IsbL-0275_RLatLon0.09_PT025H.grib2 2026-05-01 15:06 265K
20260501T12Z_MSC_RDPS_GeopotentialHeight_IsbL-0300_RLatLon0.09_PT025H.grib2 2026-05-01 15:06 235K
20260501T12Z_MSC_RDPS_GeopotentialHeight_IsbL-0350_RLatLon0.09_PT025H.grib2 2026-05-01 15:06 231K
20260501T12Z_MSC_RDPS_GeopotentialHeight_IsbL-0400_RLatLon0.09_PT025H.grib2 2026-05-01 15:06 227K
20260501T12Z_MSC_RDPS_GeopotentialHeight_IsbL-0450_RLatLon0.09_PT025H.grib2 2026-05-01 15:06 297K
20260501T12Z_MSC_RDPS_GeopotentialHeight_IsbL-0500_RLatLon0.09_PT025H.grib2 2026-05-01 15:06 293K
20260501T12Z_MSC_RDPS_GeopotentialHeight_IsbL-0550_RLatLon0.09_PT025H.grib2 2026-05-01 15:06 289K
20260501T12Z_MSC_RDPS_GeopotentialHeight_IsbL-0600_RLatLon0.09_PT025H.grib2 2026-05-01 15:06 284K
20260501T12Z_MSC_RDPS_GeopotentialHeight_IsbL-0650_RLatLon0.09_PT025H.grib2 2026-05-01 15:06 254K
20260501T12Z_MSC_RDPS_GeopotentialHeight_IsbL-0700_RLatLon0.09_PT025H.grib2 2026-05-01 15:06 253K
20260501T12Z_MSC_RDPS_GeopotentialHeight_IsbL-0750_RLatLon0.09_PT025H.grib2 2026-05-01 15:06 338K
20260501T12Z_MSC_RDPS_GeopotentialHeight_IsbL-0800_RLatLon0.09_PT025H.grib2 2026-05-01 15:06 348K
20260501T12Z_MSC_RDPS_GeopotentialHeight_IsbL-0850_RLatLon0.09_PT025H.grib2 2026-05-01 15:06 358K
20260501T12Z_MSC_RDPS_GeopotentialHeight_IsbL-0875_RLatLon0.09_PT025H.grib2 2026-05-01 15:06 358K
20260501T12Z_MSC_RDPS_GeopotentialHeight_IsbL-0900_RLatLon0.09_PT025H.grib2 2026-05-01 15:06 363K
20260501T12Z_MSC_RDPS_GeopotentialHeight_IsbL-0925_RLatLon0.09_PT025H.grib2 2026-05-01 15:06 368K
20260501T12Z_MSC_RDPS_GeopotentialHeight_IsbL-0950_RLatLon0.09_PT025H.grib2 2026-05-01 15:06 371K
20260501T12Z_MSC_RDPS_GeopotentialHeight_IsbL-0970_RLatLon0.09_PT025H.grib2 2026-05-01 15:06 376K
20260501T12Z_MSC_RDPS_GeopotentialHeight_IsbL-0985_RLatLon0.09_PT025H.grib2 2026-05-01 15:06 385K
20260501T12Z_MSC_RDPS_GeopotentialHeight_IsbL-1000_RLatLon0.09_PT025H.grib2 2026-05-01 15:06 397K
20260501T12Z_MSC_RDPS_GeopotentialHeight_IsbL-1015_RLatLon0.09_PT025H.grib2 2026-05-01 15:06 413K
20260501T12Z_MSC_RDPS_Humidex_Sfc_RLatLon0.09_PT025H.grib2 2026-05-01 15:06 2.4M
20260501T12Z_MSC_RDPS_IcePellets-Accum1h_Sfc_RLatLon0.09_PT025H.grib2 2026-05-01 15:06 7.4K
20260501T12Z_MSC_RDPS_IcePellets-Accum_Sfc_RLatLon0.09_PT025H.grib2 2026-05-01 15:06 19K
20260501T12Z_MSC_RDPS_KIndex_Sfc_RLatLon0.09_PT025H.grib2 2026-05-01 15:06 2.4M
20260501T12Z_MSC_RDPS_LatentHeatNetFlux_Sfc_RLatLon0.09_PT025H.grib2 2026-05-01 15:06 263K
20260501T12Z_MSC_RDPS_LiftedIndex-MU-VT_IsbL-0500_RLatLon0.09_PT025H.grib2 2026-05-01 15:06 2.4M
20260501T12Z_MSC_RDPS_NetLongwaveRadiationFlux-Accum_Sfc_RLatLon0.09_PT025H.grib2 2026-05-01 15:06 586K
20260501T12Z_MSC_RDPS_NetShortwaveRadiationFlux-Accum_Sfc_RLatLon0.09_PT025H.grib2 2026-05-01 15:06 634K
20260501T12Z_MSC_RDPS_PlanetaryBoundaryLayerHeight_Sfc_RLatLon0.09_PT025H.grib2 2026-05-01 15:06 1.1M
20260501T12Z_MSC_RDPS_Precip-Accum1h_Sfc_RLatLon0.09_PT025H.grib2 2026-05-01 15:06 1.2M
20260501T12Z_MSC_RDPS_Precip-Accum_Sfc_RLatLon0.09_PT025H.grib2 2026-05-01 15:06 1.8M
20260501T12Z_MSC_RDPS_PrecipRate_Sfc_RLatLon0.09_PT025H.grib2 2026-05-01 15:06 179K
20260501T12Z_MSC_RDPS_PrecipType-Instant_Sfc_RLatLon0.09_PT025H.grib2 2026-05-01 15:06 583K
20260501T12Z_MSC_RDPS_Pressure-Trend3h_Sfc_RLatLon0.09_PT025H.grib2 2026-05-01 15:06 1.2M
20260501T12Z_MSC_RDPS_Pressure_MSL_RLatLon0.09_PT025H.grib2 2026-05-01 15:06 326K
20260501T12Z_MSC_RDPS_Pressure_PVU-1.5_RLatLon0.09_PT025H.grib2 2026-05-01 15:06 2.5M
20260501T12Z_MSC_RDPS_Pressure_PVU-1_RLatLon0.09_PT025H.grib2 2026-05-01 15:06 2.4M
20260501T12Z_MSC_RDPS_Pressure_PVU-2_RLatLon0.09_PT025H.grib2 2026-05-01 15:06 2.4M
20260501T12Z_MSC_RDPS_Pressure_Sfc_RLatLon0.09_PT025H.grib2 2026-05-01 15:06 500K
20260501T12Z_MSC_RDPS_RadiativeTemp_Sfc_RLatLon0.09_PT025H.grib2 2026-05-01 15:06 307K
20260501T12Z_MSC_RDPS_Rain-Accum1h_Sfc_RLatLon0.09_PT025H.grib2 2026-05-01 15:06 623K
20260501T12Z_MSC_RDPS_Rain-Accum_Sfc_RLatLon0.09_PT025H.grib2 2026-05-01 15:06 1.4M
20260501T12Z_MSC_RDPS_RelativeHumidity_AGL-2m_RLatLon0.09_PT025H.grib2 2026-05-01 15:06 1.0M
20260501T12Z_MSC_RDPS_RelativeHumidity_IsbL-0010_RLatLon0.09_PT025H.grib2 2026-05-01 15:06 635K
20260501T12Z_MSC_RDPS_RelativeHumidity_IsbL-0020_RLatLon0.09_PT025H.grib2 2026-05-01 15:06 677K
20260501T12Z_MSC_RDPS_RelativeHumidity_IsbL-0030_RLatLon0.09_PT025H.grib2 2026-05-01 15:06 604K
20260501T12Z_MSC_RDPS_RelativeHumidity_IsbL-0050_RLatLon0.09_PT025H.grib2 2026-05-01 15:06 361K
20260501T12Z_MSC_RDPS_RelativeHumidity_IsbL-0100_RLatLon0.09_PT025H.grib2 2026-05-01 15:06 273K
20260501T12Z_MSC_RDPS_RelativeHumidity_IsbL-0150_RLatLon0.09_PT025H.grib2 2026-05-01 15:06 401K
20260501T12Z_MSC_RDPS_RelativeHumidity_IsbL-0175_RLatLon0.09_PT025H.grib2 2026-05-01 15:06 470K
20260501T12Z_MSC_RDPS_RelativeHumidity_IsbL-0200_RLatLon0.09_PT025H.grib2 2026-05-01 15:06 542K
20260501T12Z_MSC_RDPS_RelativeHumidity_IsbL-0225_RLatLon0.09_PT025H.grib2 2026-05-01 15:06 606K
20260501T12Z_MSC_RDPS_RelativeHumidity_IsbL-0250_RLatLon0.09_PT025H.grib2 2026-05-01 15:06 672K
20260501T12Z_MSC_RDPS_RelativeHumidity_IsbL-0275_RLatLon0.09_PT025H.grib2 2026-05-01 15:06 698K
20260501T12Z_MSC_RDPS_RelativeHumidity_IsbL-0300_RLatLon0.09_PT025H.grib2 2026-05-01 15:06 737K
20260501T12Z_MSC_RDPS_RelativeHumidity_IsbL-0350_RLatLon0.09_PT025H.grib2 2026-05-01 15:06 764K
20260501T12Z_MSC_RDPS_RelativeHumidity_IsbL-0400_RLatLon0.09_PT025H.grib2 2026-05-01 15:06 782K
20260501T12Z_MSC_RDPS_RelativeHumidity_IsbL-0450_RLatLon0.09_PT025H.grib2 2026-05-01 15:06 791K
20260501T12Z_MSC_RDPS_RelativeHumidity_IsbL-0500_RLatLon0.09_PT025H.grib2 2026-05-01 15:06 799K
20260501T12Z_MSC_RDPS_RelativeHumidity_IsbL-0550_RLatLon0.09_PT025H.grib2 2026-05-01 15:06 828K
20260501T12Z_MSC_RDPS_RelativeHumidity_IsbL-0600_RLatLon0.09_PT025H.grib2 2026-05-01 15:06 838K
20260501T12Z_MSC_RDPS_RelativeHumidity_IsbL-0650_RLatLon0.09_PT025H.grib2 2026-05-01 15:06 849K
20260501T12Z_MSC_RDPS_RelativeHumidity_IsbL-0700_RLatLon0.09_PT025H.grib2 2026-05-01 15:06 877K
20260501T12Z_MSC_RDPS_RelativeHumidity_IsbL-0750_RLatLon0.09_PT025H.grib2 2026-05-01 15:06 917K
20260501T12Z_MSC_RDPS_RelativeHumidity_IsbL-0800_RLatLon0.09_PT025H.grib2 2026-05-01 15:06 1.0M
20260501T12Z_MSC_RDPS_RelativeHumidity_IsbL-0850_RLatLon0.09_PT025H.grib2 2026-05-01 15:06 1.0M
20260501T12Z_MSC_RDPS_RelativeHumidity_IsbL-0875_RLatLon0.09_PT025H.grib2 2026-05-01 15:06 1.1M
20260501T12Z_MSC_RDPS_RelativeHumidity_IsbL-0900_RLatLon0.09_PT025H.grib2 2026-05-01 15:06 1.1M
20260501T12Z_MSC_RDPS_RelativeHumidity_IsbL-0925_RLatLon0.09_PT025H.grib2 2026-05-01 15:06 1.1M
20260501T12Z_MSC_RDPS_RelativeHumidity_IsbL-0950_RLatLon0.09_PT025H.grib2 2026-05-01 15:06 1.1M
20260501T12Z_MSC_RDPS_RelativeHumidity_IsbL-0970_RLatLon0.09_PT025H.grib2 2026-05-01 15:06 1.1M
20260501T12Z_MSC_RDPS_RelativeHumidity_IsbL-0985_RLatLon0.09_PT025H.grib2 2026-05-01 15:06 1.0M
20260501T12Z_MSC_RDPS_RelativeHumidity_IsbL-1000_RLatLon0.09_PT025H.grib2 2026-05-01 15:06 1.0M
20260501T12Z_MSC_RDPS_RelativeHumidity_IsbL-1015_RLatLon0.09_PT025H.grib2 2026-05-01 15:06 1.0M
20260501T12Z_MSC_RDPS_Runoff-Accum_Sfc_RLatLon0.09_PT025H.grib2 2026-05-01 15:06 58K
20260501T12Z_MSC_RDPS_SWEATIndex_Sfc_RLatLon0.09_PT025H.grib2 2026-05-01 15:06 2.4M
20260501T12Z_MSC_RDPS_SeeingIndex_EAtm_RLatLon0.09_PT025H.grib2 2026-05-01 15:06 1.0M
20260501T12Z_MSC_RDPS_SensibleHeatNetFlux_Sfc_RLatLon0.09_PT025H.grib2 2026-05-01 15:06 242K
20260501T12Z_MSC_RDPS_ShowalterIndex_IsbL-0500_RLatLon0.09_PT025H.grib2 2026-05-01 15:06 2.6M
20260501T12Z_MSC_RDPS_SkyTransparencyIndex_EAtm_RLatLon0.09_PT025H.grib2 2026-05-01 15:06 710K
20260501T12Z_MSC_RDPS_Snow-Accum1h_Sfc_RLatLon0.09_PT025H.grib2 2026-05-01 15:06 447K
20260501T12Z_MSC_RDPS_Snow-Accum_Sfc_RLatLon0.09_PT025H.grib2 2026-05-01 15:06 623K
20260501T12Z_MSC_RDPS_SnowDensity_Sfc_RLatLon0.09_PT025H.grib2 2026-05-01 15:06 170K
20260501T12Z_MSC_RDPS_SnowDepth_Sfc_RLatLon0.09_PT025H.grib2 2026-05-01 15:06 664K
20260501T12Z_MSC_RDPS_SoilTemp_DBS-0to10cm_RLatLon0.09_PT025H.grib2 2026-05-01 15:06 223K
20260501T12Z_MSC_RDPS_SoilTemp_Sfc_RLatLon0.09_PT025H.grib2 2026-05-01 15:06 272K
20260501T12Z_MSC_RDPS_SoilVolumetricIceContent_Sfc_RLatLon0.09_PT025H.grib2 2026-05-01 15:06 161K
20260501T12Z_MSC_RDPS_SoilVolumetricWaterContent_DBS-0to10cm_RLatLon0.09_PT025H.grib2 2026-05-01 15:06 271K
20260501T12Z_MSC_RDPS_SoilVolumetricWaterContent_DBS-0to1cm_RLatLon0.09_PT025H.grib2 2026-05-01 15:06 340K
20260501T12Z_MSC_RDPS_SpecificHumidity_AGL-120m_RLatLon0.09_PT025H.grib2 2026-05-01 15:06 492K
20260501T12Z_MSC_RDPS_SpecificHumidity_AGL-2m_RLatLon0.09_PT025H.grib2 2026-05-01 15:06 658K
20260501T12Z_MSC_RDPS_SpecificHumidity_AGL-40m_RLatLon0.09_PT025H.grib2 2026-05-01 15:06 498K
20260501T12Z_MSC_RDPS_SpecificHumidity_AGL-80m_RLatLon0.09_PT025H.grib2 2026-05-01 15:06 494K
20260501T12Z_MSC_RDPS_SpecificHumidity_IsbL-0001_RLatLon0.09_PT025H.grib2 2026-05-01 15:06 399K
20260501T12Z_MSC_RDPS_SpecificHumidity_IsbL-0005_RLatLon0.09_PT025H.grib2 2026-05-01 15:06 363K
20260501T12Z_MSC_RDPS_SpecificHumidity_IsbL-0010_RLatLon0.09_PT025H.grib2 2026-05-01 15:06 395K
20260501T12Z_MSC_RDPS_SpecificHumidity_IsbL-0020_RLatLon0.09_PT025H.grib2 2026-05-01 15:06 381K
20260501T12Z_MSC_RDPS_SpecificHumidity_IsbL-0030_RLatLon0.09_PT025H.grib2 2026-05-01 15:06 372K
20260501T12Z_MSC_RDPS_SpecificHumidity_IsbL-0050_RLatLon0.09_PT025H.grib2 2026-05-01 15:06 458K
20260501T12Z_MSC_RDPS_SpecificHumidity_IsbL-0100_RLatLon0.09_PT025H.grib2 2026-05-01 15:06 442K
20260501T12Z_MSC_RDPS_SpecificHumidity_IsbL-0150_RLatLon0.09_PT025H.grib2 2026-05-01 15:06 444K
20260501T12Z_MSC_RDPS_SpecificHumidity_IsbL-0175_RLatLon0.09_PT025H.grib2 2026-05-01 15:06 529K
20260501T12Z_MSC_RDPS_SpecificHumidity_IsbL-0200_RLatLon0.09_PT025H.grib2 2026-05-01 15:06 438K
20260501T12Z_MSC_RDPS_SpecificHumidity_IsbL-0225_RLatLon0.09_PT025H.grib2 2026-05-01 15:06 440K
20260501T12Z_MSC_RDPS_SpecificHumidity_IsbL-0250_RLatLon0.09_PT025H.grib2 2026-05-01 15:06 503K
20260501T12Z_MSC_RDPS_SpecificHumidity_IsbL-0275_RLatLon0.09_PT025H.grib2 2026-05-01 15:06 464K
20260501T12Z_MSC_RDPS_SpecificHumidity_IsbL-0300_RLatLon0.09_PT025H.grib2 2026-05-01 15:06 436K
20260501T12Z_MSC_RDPS_SpecificHumidity_IsbL-0350_RLatLon0.09_PT025H.grib2 2026-05-01 15:06 432K
20260501T12Z_MSC_RDPS_SpecificHumidity_IsbL-0400_RLatLon0.09_PT025H.grib2 2026-05-01 15:06 512K
20260501T12Z_MSC_RDPS_SpecificHumidity_IsbL-0450_RLatLon0.09_PT025H.grib2 2026-05-01 15:06 566K
20260501T12Z_MSC_RDPS_SpecificHumidity_IsbL-0500_RLatLon0.09_PT025H.grib2 2026-05-01 15:06 503K
20260501T12Z_MSC_RDPS_SpecificHumidity_IsbL-0550_RLatLon0.09_PT025H.grib2 2026-05-01 15:06 575K
20260501T12Z_MSC_RDPS_SpecificHumidity_IsbL-0600_RLatLon0.09_PT025H.grib2 2026-05-01 15:06 631K
20260501T12Z_MSC_RDPS_SpecificHumidity_IsbL-0650_RLatLon0.09_PT025H.grib2 2026-05-01 15:06 546K
20260501T12Z_MSC_RDPS_SpecificHumidity_IsbL-0700_RLatLon0.09_PT025H.grib2 2026-05-01 15:06 587K
20260501T12Z_MSC_RDPS_SpecificHumidity_IsbL-0750_RLatLon0.09_PT025H.grib2 2026-05-01 15:06 639K
20260501T12Z_MSC_RDPS_SpecificHumidity_IsbL-0800_RLatLon0.09_PT025H.grib2 2026-05-01 15:06 724K
20260501T12Z_MSC_RDPS_SpecificHumidity_IsbL-0850_RLatLon0.09_PT025H.grib2 2026-05-01 15:06 801K
20260501T12Z_MSC_RDPS_SpecificHumidity_IsbL-0875_RLatLon0.09_PT025H.grib2 2026-05-01 15:06 824K
20260501T12Z_MSC_RDPS_SpecificHumidity_IsbL-0900_RLatLon0.09_PT025H.grib2 2026-05-01 15:06 835K
20260501T12Z_MSC_RDPS_SpecificHumidity_IsbL-0925_RLatLon0.09_PT025H.grib2 2026-05-01 15:06 836K
20260501T12Z_MSC_RDPS_SpecificHumidity_IsbL-0950_RLatLon0.09_PT025H.grib2 2026-05-01 15:06 840K
20260501T12Z_MSC_RDPS_SpecificHumidity_IsbL-0970_RLatLon0.09_PT025H.grib2 2026-05-01 15:06 835K
20260501T12Z_MSC_RDPS_SpecificHumidity_IsbL-0985_RLatLon0.09_PT025H.grib2 2026-05-01 15:06 688K
20260501T12Z_MSC_RDPS_SpecificHumidity_IsbL-1000_RLatLon0.09_PT025H.grib2 2026-05-01 15:06 682K
20260501T12Z_MSC_RDPS_SpecificHumidity_IsbL-1015_RLatLon0.09_PT025H.grib2 2026-05-01 15:06 671K
20260501T12Z_MSC_RDPS_SpecificHumidity_Sfc_RLatLon0.09_PT025H.grib2 2026-05-01 15:06 302K
20260501T12Z_MSC_RDPS_StormRelativeHelicity_EtaL-10000_RLatLon0.09_PT025H.grib2 2026-05-01 15:06 1.1M
20260501T12Z_MSC_RDPS_StormSeverityIndex_EtaL-10000_RLatLon0.09_PT025H.grib2 2026-05-01 15:06 1.2M
20260501T12Z_MSC_RDPS_Thickness_IsbL-0850to0700_RLatLon0.09_PT025H.grib2 2026-05-01 15:06 176K
20260501T12Z_MSC_RDPS_Thickness_IsbL-1000to0500_RLatLon0.09_PT025H.grib2 2026-05-01 15:06 195K
20260501T12Z_MSC_RDPS_Thickness_IsbL-1000to0850_RLatLon0.09_PT025H.grib2 2026-05-01 15:06 263K
20260501T12Z_MSC_RDPS_TotalCloudCover_Sfc_RLatLon0.09_PT025H.grib2 2026-05-01 15:06 653K
20260501T12Z_MSC_RDPS_TotalTotalsIndex_Sfc_RLatLon0.09_PT025H.grib2 2026-05-01 15:06 2.4M
20260501T12Z_MSC_RDPS_UVIndex-ClearSky_Sfc_RLatLon0.09_PT025H.grib2 2026-05-01 15:06 191K
20260501T12Z_MSC_RDPS_UVIndex_Sfc_RLatLon0.09_PT025H.grib2 2026-05-01 15:06 406K
20260501T12Z_MSC_RDPS_UpwardLongwaveRadiationFlux_NTAtm_RLatLon0.09_PT025H.grib2 2026-05-01 15:06 478K
20260501T12Z_MSC_RDPS_UpwardShortwaveRadiationFlux_NTAtm_RLatLon0.09_PT025H.grib2 2026-05-01 15:06 347K
20260501T12Z_MSC_RDPS_VerticalVelocity_IsbL-0250_RLatLon0.09_PT025H.grib2 2026-05-01 15:06 545K
20260501T12Z_MSC_RDPS_VerticalVelocity_IsbL-0500_RLatLon0.09_PT025H.grib2 2026-05-01 15:06 538K
20260501T12Z_MSC_RDPS_VerticalVelocity_IsbL-0700_RLatLon0.09_PT025H.grib2 2026-05-01 15:06 587K
20260501T12Z_MSC_RDPS_VerticalVelocity_IsbL-0850_RLatLon0.09_PT025H.grib2 2026-05-01 15:06 692K
20260501T12Z_MSC_RDPS_VerticalWindShear_EtaL-6500_RLatLon0.09_PT025H.grib2 2026-05-01 15:06 1.2M
20260501T12Z_MSC_RDPS_WindChill_Sfc_RLatLon0.09_PT025H.grib2 2026-05-01 15:06 1.2M
20260501T12Z_MSC_RDPS_WindDir_AGL-10m_RLatLon0.09_PT025H.grib2 2026-05-01 15:06 1.0M
20260501T12Z_MSC_RDPS_WindDir_AGL-120m_RLatLon0.09_PT025H.grib2 2026-05-01 15:06 611K
20260501T12Z_MSC_RDPS_WindDir_AGL-40m_RLatLon0.09_PT025H.grib2 2026-05-01 15:06 641K
20260501T12Z_MSC_RDPS_WindDir_AGL-80m_RLatLon0.09_PT025H.grib2 2026-05-01 15:06 623K
20260501T12Z_MSC_RDPS_WindDir_IsbL-0001_RLatLon0.09_PT025H.grib2 2026-05-01 15:06 309K
20260501T12Z_MSC_RDPS_WindDir_IsbL-0005_RLatLon0.09_PT025H.grib2 2026-05-01 15:06 366K
20260501T12Z_MSC_RDPS_WindDir_IsbL-0010_RLatLon0.09_PT025H.grib2 2026-05-01 15:06 382K
20260501T12Z_MSC_RDPS_WindDir_IsbL-0020_RLatLon0.09_PT025H.grib2 2026-05-01 15:06 420K
20260501T12Z_MSC_RDPS_WindDir_IsbL-0030_RLatLon0.09_PT025H.grib2 2026-05-01 15:06 420K
20260501T12Z_MSC_RDPS_WindDir_IsbL-0050_RLatLon0.09_PT025H.grib2 2026-05-01 15:06 420K
20260501T12Z_MSC_RDPS_WindDir_IsbL-0100_RLatLon0.09_PT025H.grib2 2026-05-01 15:06 412K
20260501T12Z_MSC_RDPS_WindDir_IsbL-0150_RLatLon0.09_PT025H.grib2 2026-05-01 15:06 407K
20260501T12Z_MSC_RDPS_WindDir_IsbL-0175_RLatLon0.09_PT025H.grib2 2026-05-01 15:06 423K
20260501T12Z_MSC_RDPS_WindDir_IsbL-0200_RLatLon0.09_PT025H.grib2 2026-05-01 15:06 433K
20260501T12Z_MSC_RDPS_WindDir_IsbL-0225_RLatLon0.09_PT025H.grib2 2026-05-01 15:06 439K
20260501T12Z_MSC_RDPS_WindDir_IsbL-0250_RLatLon0.09_PT025H.grib2 2026-05-01 15:06 446K
20260501T12Z_MSC_RDPS_WindDir_IsbL-0275_RLatLon0.09_PT025H.grib2 2026-05-01 15:06 468K
20260501T12Z_MSC_RDPS_WindDir_IsbL-0300_RLatLon0.09_PT025H.grib2 2026-05-01 15:06 470K
20260501T12Z_MSC_RDPS_WindDir_IsbL-0350_RLatLon0.09_PT025H.grib2 2026-05-01 15:06 494K
20260501T12Z_MSC_RDPS_WindDir_IsbL-0400_RLatLon0.09_PT025H.grib2 2026-05-01 15:06 513K
20260501T12Z_MSC_RDPS_WindDir_IsbL-0450_RLatLon0.09_PT025H.grib2 2026-05-01 15:06 526K
20260501T12Z_MSC_RDPS_WindDir_IsbL-0500_RLatLon0.09_PT025H.grib2 2026-05-01 15:06 540K
20260501T12Z_MSC_RDPS_WindDir_IsbL-0550_RLatLon0.09_PT025H.grib2 2026-05-01 15:06 553K
20260501T12Z_MSC_RDPS_WindDir_IsbL-0600_RLatLon0.09_PT025H.grib2 2026-05-01 15:06 582K
20260501T12Z_MSC_RDPS_WindDir_IsbL-0650_RLatLon0.09_PT025H.grib2 2026-05-01 15:06 618K
20260501T12Z_MSC_RDPS_WindDir_IsbL-0700_RLatLon0.09_PT025H.grib2 2026-05-01 15:06 655K
20260501T12Z_MSC_RDPS_WindDir_IsbL-0750_RLatLon0.09_PT025H.grib2 2026-05-01 15:06 703K
20260501T12Z_MSC_RDPS_WindDir_IsbL-0800_RLatLon0.09_PT025H.grib2 2026-05-01 15:06 770K
20260501T12Z_MSC_RDPS_WindDir_IsbL-0850_RLatLon0.09_PT025H.grib2 2026-05-01 15:06 858K
20260501T12Z_MSC_RDPS_WindDir_IsbL-0875_RLatLon0.09_PT025H.grib2 2026-05-01 15:06 890K
20260501T12Z_MSC_RDPS_WindDir_IsbL-0900_RLatLon0.09_PT025H.grib2 2026-05-01 15:06 905K
20260501T12Z_MSC_RDPS_WindDir_IsbL-0925_RLatLon0.09_PT025H.grib2 2026-05-01 15:06 916K
20260501T12Z_MSC_RDPS_WindDir_IsbL-0950_RLatLon0.09_PT025H.grib2 2026-05-01 15:06 913K
20260501T12Z_MSC_RDPS_WindDir_IsbL-0970_RLatLon0.09_PT025H.grib2 2026-05-01 15:06 923K
20260501T12Z_MSC_RDPS_WindDir_IsbL-0985_RLatLon0.09_PT025H.grib2 2026-05-01 15:06 935K
20260501T12Z_MSC_RDPS_WindDir_IsbL-1000_RLatLon0.09_PT025H.grib2 2026-05-01 15:06 949K
20260501T12Z_MSC_RDPS_WindDir_IsbL-1015_RLatLon0.09_PT025H.grib2 2026-05-01 15:06 966K
20260501T12Z_MSC_RDPS_WindGust-Max_AGL-10m_RLatLon0.09_PT025H.grib2 2026-05-01 15:06 958K
20260501T12Z_MSC_RDPS_WindGust-Min_AGL-10m_RLatLon0.09_PT025H.grib2 2026-05-01 15:06 1.0M
20260501T12Z_MSC_RDPS_WindGust_AGL-10m_RLatLon0.09_PT025H.grib2 2026-05-01 15:06 1.0M
20260501T12Z_MSC_RDPS_WindSpeed_AGL-10m_RLatLon0.09_PT025H.grib2 2026-05-01 15:06 845K
20260501T12Z_MSC_RDPS_WindSpeed_AGL-120m_RLatLon0.09_PT025H.grib2 2026-05-01 15:06 547K
20260501T12Z_MSC_RDPS_WindSpeed_AGL-40m_RLatLon0.09_PT025H.grib2 2026-05-01 15:06 546K
20260501T12Z_MSC_RDPS_WindSpeed_AGL-80m_RLatLon0.09_PT025H.grib2 2026-05-01 15:06 546K
20260501T12Z_MSC_RDPS_WindSpeed_IsbL-0001_RLatLon0.09_PT025H.grib2 2026-05-01 15:06 253K
20260501T12Z_MSC_RDPS_WindSpeed_IsbL-0005_RLatLon0.09_PT025H.grib2 2026-05-01 15:06 289K
20260501T12Z_MSC_RDPS_WindSpeed_IsbL-0010_RLatLon0.09_PT025H.grib2 2026-05-01 15:06 395K
20260501T12Z_MSC_RDPS_WindSpeed_IsbL-0020_RLatLon0.09_PT025H.grib2 2026-05-01 15:06 317K
20260501T12Z_MSC_RDPS_WindSpeed_IsbL-0030_RLatLon0.09_PT025H.grib2 2026-05-01 15:06 316K
20260501T12Z_MSC_RDPS_WindSpeed_IsbL-0050_RLatLon0.09_PT025H.grib2 2026-05-01 15:06 346K
20260501T12Z_MSC_RDPS_WindSpeed_IsbL-0100_RLatLon0.09_PT025H.grib2 2026-05-01 15:06 474K
20260501T12Z_MSC_RDPS_WindSpeed_IsbL-0150_RLatLon0.09_PT025H.grib2 2026-05-01 15:06 379K
20260501T12Z_MSC_RDPS_WindSpeed_IsbL-0175_RLatLon0.09_PT025H.grib2 2026-05-01 15:06 403K
20260501T12Z_MSC_RDPS_WindSpeed_IsbL-0200_RLatLon0.09_PT025H.grib2 2026-05-01 15:06 438K
20260501T12Z_MSC_RDPS_WindSpeed_IsbL-0225_RLatLon0.09_PT025H.grib2 2026-05-01 15:06 442K
20260501T12Z_MSC_RDPS_WindSpeed_IsbL-0250_RLatLon0.09_PT025H.grib2 2026-05-01 15:06 445K
20260501T12Z_MSC_RDPS_WindSpeed_IsbL-0275_RLatLon0.09_PT025H.grib2 2026-05-01 15:06 463K
20260501T12Z_MSC_RDPS_WindSpeed_IsbL-0300_RLatLon0.09_PT025H.grib2 2026-05-01 15:06 461K
20260501T12Z_MSC_RDPS_WindSpeed_IsbL-0350_RLatLon0.09_PT025H.grib2 2026-05-01 15:06 473K
20260501T12Z_MSC_RDPS_WindSpeed_IsbL-0400_RLatLon0.09_PT025H.grib2 2026-05-01 15:06 478K
20260501T12Z_MSC_RDPS_WindSpeed_IsbL-0450_RLatLon0.09_PT025H.grib2 2026-05-01 15:06 461K
20260501T12Z_MSC_RDPS_WindSpeed_IsbL-0500_RLatLon0.09_PT025H.grib2 2026-05-01 15:06 580K
20260501T12Z_MSC_RDPS_WindSpeed_IsbL-0550_RLatLon0.09_PT025H.grib2 2026-05-01 15:06 581K
20260501T12Z_MSC_RDPS_WindSpeed_IsbL-0600_RLatLon0.09_PT025H.grib2 2026-05-01 15:06 590K
20260501T12Z_MSC_RDPS_WindSpeed_IsbL-0650_RLatLon0.09_PT025H.grib2 2026-05-01 15:06 650K
20260501T12Z_MSC_RDPS_WindSpeed_IsbL-0700_RLatLon0.09_PT025H.grib2 2026-05-01 15:06 674K
20260501T12Z_MSC_RDPS_WindSpeed_IsbL-0750_RLatLon0.09_PT025H.grib2 2026-05-01 15:06 706K
20260501T12Z_MSC_RDPS_WindSpeed_IsbL-0800_RLatLon0.09_PT025H.grib2 2026-05-01 15:06 712K
20260501T12Z_MSC_RDPS_WindSpeed_IsbL-0850_RLatLon0.09_PT025H.grib2 2026-05-01 15:06 772K
20260501T12Z_MSC_RDPS_WindSpeed_IsbL-0875_RLatLon0.09_PT025H.grib2 2026-05-01 15:06 792K
20260501T12Z_MSC_RDPS_WindSpeed_IsbL-0900_RLatLon0.09_PT025H.grib2 2026-05-01 15:06 805K
20260501T12Z_MSC_RDPS_WindSpeed_IsbL-0925_RLatLon0.09_PT025H.grib2 2026-05-01 15:06 865K
20260501T12Z_MSC_RDPS_WindSpeed_IsbL-0950_RLatLon0.09_PT025H.grib2 2026-05-01 15:06 867K
20260501T12Z_MSC_RDPS_WindSpeed_IsbL-0970_RLatLon0.09_PT025H.grib2 2026-05-01 15:06 864K
20260501T12Z_MSC_RDPS_WindSpeed_IsbL-0985_RLatLon0.09_PT025H.grib2 2026-05-01 15:06 860K
20260501T12Z_MSC_RDPS_WindSpeed_IsbL-1000_RLatLon0.09_PT025H.grib2 2026-05-01 15:06 855K
20260501T12Z_MSC_RDPS_WindSpeed_IsbL-1015_RLatLon0.09_PT025H.grib2 2026-05-01 15:06 845K
20260501T12Z_MSC_RDPS_WindU_AGL-10m_RLatLon0.09_PT025H.grib2 2026-05-01 15:06 435K
20260501T12Z_MSC_RDPS_WindU_AGL-120m_RLatLon0.09_PT025H.grib2 2026-05-01 15:06 541K
20260501T12Z_MSC_RDPS_WindU_AGL-40m_RLatLon0.09_PT025H.grib2 2026-05-01 15:06 542K
20260501T12Z_MSC_RDPS_WindU_AGL-80m_RLatLon0.09_PT025H.grib2 2026-05-01 15:06 542K
20260501T12Z_MSC_RDPS_WindU_IsbL-0001_RLatLon0.09_PT025H.grib2 2026-05-01 15:06 293K
20260501T12Z_MSC_RDPS_WindU_IsbL-0005_RLatLon0.09_PT025H.grib2 2026-05-01 15:06 282K
20260501T12Z_MSC_RDPS_WindU_IsbL-0010_RLatLon0.09_PT025H.grib2 2026-05-01 15:06 294K
20260501T12Z_MSC_RDPS_WindU_IsbL-0020_RLatLon0.09_PT025H.grib2 2026-05-01 15:06 349K
20260501T12Z_MSC_RDPS_WindU_IsbL-0030_RLatLon0.09_PT025H.grib2 2026-05-01 15:06 349K
20260501T12Z_MSC_RDPS_WindU_IsbL-0050_RLatLon0.09_PT025H.grib2 2026-05-01 15:06 376K
20260501T12Z_MSC_RDPS_WindU_IsbL-0100_RLatLon0.09_PT025H.grib2 2026-05-01 15:06 428K
20260501T12Z_MSC_RDPS_WindU_IsbL-0150_RLatLon0.09_PT025H.grib2 2026-05-01 15:06 393K
20260501T12Z_MSC_RDPS_WindU_IsbL-0175_RLatLon0.09_PT025H.grib2 2026-05-01 15:06 416K
20260501T12Z_MSC_RDPS_WindU_IsbL-0200_RLatLon0.09_PT025H.grib2 2026-05-01 15:06 333K
20260501T12Z_MSC_RDPS_WindU_IsbL-0225_RLatLon0.09_PT025H.grib2 2026-05-01 15:06 336K
20260501T12Z_MSC_RDPS_WindU_IsbL-0250_RLatLon0.09_PT025H.grib2 2026-05-01 15:06 337K
20260501T12Z_MSC_RDPS_WindU_IsbL-0275_RLatLon0.09_PT025H.grib2 2026-05-01 15:06 351K
20260501T12Z_MSC_RDPS_WindU_IsbL-0300_RLatLon0.09_PT025H.grib2 2026-05-01 15:06 348K
20260501T12Z_MSC_RDPS_WindU_IsbL-0350_RLatLon0.09_PT025H.grib2 2026-05-01 15:06 358K
20260501T12Z_MSC_RDPS_WindU_IsbL-0400_RLatLon0.09_PT025H.grib2 2026-05-01 15:06 363K
20260501T12Z_MSC_RDPS_WindU_IsbL-0450_RLatLon0.09_PT025H.grib2 2026-05-01 15:06 467K
20260501T12Z_MSC_RDPS_WindU_IsbL-0500_RLatLon0.09_PT025H.grib2 2026-05-01 15:06 470K
20260501T12Z_MSC_RDPS_WindU_IsbL-0550_RLatLon0.09_PT025H.grib2 2026-05-01 15:06 472K
20260501T12Z_MSC_RDPS_WindU_IsbL-0600_RLatLon0.09_PT025H.grib2 2026-05-01 15:06 479K
20260501T12Z_MSC_RDPS_WindU_IsbL-0650_RLatLon0.09_PT025H.grib2 2026-05-01 15:06 478K
20260501T12Z_MSC_RDPS_WindU_IsbL-0700_RLatLon0.09_PT025H.grib2 2026-05-01 15:06 499K
20260501T12Z_MSC_RDPS_WindU_IsbL-0750_RLatLon0.09_PT025H.grib2 2026-05-01 15:06 528K
20260501T12Z_MSC_RDPS_WindU_IsbL-0800_RLatLon0.09_PT025H.grib2 2026-05-01 15:06 572K
20260501T12Z_MSC_RDPS_WindU_IsbL-0850_RLatLon0.09_PT025H.grib2 2026-05-01 15:06 626K
20260501T12Z_MSC_RDPS_WindU_IsbL-0875_RLatLon0.09_PT025H.grib2 2026-05-01 15:06 644K
20260501T12Z_MSC_RDPS_WindU_IsbL-0900_RLatLon0.09_PT025H.grib2 2026-05-01 15:06 653K
20260501T12Z_MSC_RDPS_WindU_IsbL-0925_RLatLon0.09_PT025H.grib2 2026-05-01 15:06 663K
20260501T12Z_MSC_RDPS_WindU_IsbL-0950_RLatLon0.09_PT025H.grib2 2026-05-01 15:06 660K
20260501T12Z_MSC_RDPS_WindU_IsbL-0970_RLatLon0.09_PT025H.grib2 2026-05-01 15:06 800K
20260501T12Z_MSC_RDPS_WindU_IsbL-0985_RLatLon0.09_PT025H.grib2 2026-05-01 15:06 796K
20260501T12Z_MSC_RDPS_WindU_IsbL-1000_RLatLon0.09_PT025H.grib2 2026-05-01 15:06 792K
20260501T12Z_MSC_RDPS_WindU_IsbL-1015_RLatLon0.09_PT025H.grib2 2026-05-01 15:06 831K
20260501T12Z_MSC_RDPS_WindV_AGL-10m_RLatLon0.09_PT025H.grib2 2026-05-01 15:06 434K
20260501T12Z_MSC_RDPS_WindV_AGL-120m_RLatLon0.09_PT025H.grib2 2026-05-01 15:06 538K
20260501T12Z_MSC_RDPS_WindV_AGL-40m_RLatLon0.09_PT025H.grib2 2026-05-01 15:06 539K
20260501T12Z_MSC_RDPS_WindV_AGL-80m_RLatLon0.09_PT025H.grib2 2026-05-01 15:06 538K
20260501T12Z_MSC_RDPS_WindV_IsbL-0001_RLatLon0.09_PT025H.grib2 2026-05-01 15:06 293K
20260501T12Z_MSC_RDPS_WindV_IsbL-0005_RLatLon0.09_PT025H.grib2 2026-05-01 15:06 283K
20260501T12Z_MSC_RDPS_WindV_IsbL-0010_RLatLon0.09_PT025H.grib2 2026-05-01 15:06 296K
20260501T12Z_MSC_RDPS_WindV_IsbL-0020_RLatLon0.09_PT025H.grib2 2026-05-01 15:06 311K
20260501T12Z_MSC_RDPS_WindV_IsbL-0030_RLatLon0.09_PT025H.grib2 2026-05-01 15:06 311K
20260501T12Z_MSC_RDPS_WindV_IsbL-0050_RLatLon0.09_PT025H.grib2 2026-05-01 15:06 340K
20260501T12Z_MSC_RDPS_WindV_IsbL-0100_RLatLon0.09_PT025H.grib2 2026-05-01 15:06 426K
20260501T12Z_MSC_RDPS_WindV_IsbL-0150_RLatLon0.09_PT025H.grib2 2026-05-01 15:06 395K
20260501T12Z_MSC_RDPS_WindV_IsbL-0175_RLatLon0.09_PT025H.grib2 2026-05-01 15:06 416K
20260501T12Z_MSC_RDPS_WindV_IsbL-0200_RLatLon0.09_PT025H.grib2 2026-05-01 15:06 332K
20260501T12Z_MSC_RDPS_WindV_IsbL-0225_RLatLon0.09_PT025H.grib2 2026-05-01 15:06 335K
20260501T12Z_MSC_RDPS_WindV_IsbL-0250_RLatLon0.09_PT025H.grib2 2026-05-01 15:06 336K
20260501T12Z_MSC_RDPS_WindV_IsbL-0275_RLatLon0.09_PT025H.grib2 2026-05-01 15:06 349K
20260501T12Z_MSC_RDPS_WindV_IsbL-0300_RLatLon0.09_PT025H.grib2 2026-05-01 15:06 346K
20260501T12Z_MSC_RDPS_WindV_IsbL-0350_RLatLon0.09_PT025H.grib2 2026-05-01 15:06 355K
20260501T12Z_MSC_RDPS_WindV_IsbL-0400_RLatLon0.09_PT025H.grib2 2026-05-01 15:06 359K
20260501T12Z_MSC_RDPS_WindV_IsbL-0450_RLatLon0.09_PT025H.grib2 2026-05-01 15:06 463K
20260501T12Z_MSC_RDPS_WindV_IsbL-0500_RLatLon0.09_PT025H.grib2 2026-05-01 15:06 465K
20260501T12Z_MSC_RDPS_WindV_IsbL-0550_RLatLon0.09_PT025H.grib2 2026-05-01 15:06 467K
20260501T12Z_MSC_RDPS_WindV_IsbL-0600_RLatLon0.09_PT025H.grib2 2026-05-01 15:06 458K
20260501T12Z_MSC_RDPS_WindV_IsbL-0650_RLatLon0.09_PT025H.grib2 2026-05-01 15:06 474K
20260501T12Z_MSC_RDPS_WindV_IsbL-0700_RLatLon0.09_PT025H.grib2 2026-05-01 15:06 495K
20260501T12Z_MSC_RDPS_WindV_IsbL-0750_RLatLon0.09_PT025H.grib2 2026-05-01 15:06 524K
20260501T12Z_MSC_RDPS_WindV_IsbL-0800_RLatLon0.09_PT025H.grib2 2026-05-01 15:06 566K
20260501T12Z_MSC_RDPS_WindV_IsbL-0850_RLatLon0.09_PT025H.grib2 2026-05-01 15:06 755K
20260501T12Z_MSC_RDPS_WindV_IsbL-0875_RLatLon0.09_PT025H.grib2 2026-05-01 15:06 639K
20260501T12Z_MSC_RDPS_WindV_IsbL-0900_RLatLon0.09_PT025H.grib2 2026-05-01 15:06 650K
20260501T12Z_MSC_RDPS_WindV_IsbL-0925_RLatLon0.09_PT025H.grib2 2026-05-01 15:06 659K
20260501T12Z_MSC_RDPS_WindV_IsbL-0950_RLatLon0.09_PT025H.grib2 2026-05-01 15:06 796K
20260501T12Z_MSC_RDPS_WindV_IsbL-0970_RLatLon0.09_PT025H.grib2 2026-05-01 15:06 796K
20260501T12Z_MSC_RDPS_WindV_IsbL-0985_RLatLon0.09_PT025H.grib2 2026-05-01 15:06 792K
20260501T12Z_MSC_RDPS_WindV_IsbL-1000_RLatLon0.09_PT025H.grib2 2026-05-01 15:06 787K
20260501T12Z_MSC_RDPS_WindV_IsbL-1015_RLatLon0.09_PT025H.grib2 2026-05-01 15:06 828K